Location: Unspecified
(0.0000°N, 0.0000°E)
Time: 15:15:20
(UTC+00:00)

Altair - Pass Details

Date: 30 October 2021
Orbit: 1502 x 1682 km, 47.2° (Epoch: 26 November)

Event Time Altitude Azimuth Distance (km) Brightness Sun altitude
Rises 23:34:56 0° 253° (WSW) 4,651 - -75.7°
Reaches altitude 10° 23:39:01 10° 268° (W) 3,654 - -75.8°
Maximum altitude 23:45:19 20° 313° (NW) 2,907 - -75.9°
Drops below altitude 10° 23:51:38 10° 357° (N) 3,650 - -75.8°
Sets 23:55:46 0° 13° (NNE) 4,645 - -75.6°
